sat.trackr.live / text

‹ back to catalog

STARLINK-1263

NORAD 45405 · 2020-019AX

PAYLOAD ACTIVE UNKNOWN

§ Identity

Operator
Country
US
Launch date
2020-03-18
Launch site
AFETR
Launch vehicle
Mass (kg)
RCS (m²)

Purposes: comms

External: N2YO · Heavens-Above · Gunter

§ Orbital elements

Epoch: 2026-05-25T02:43:48.222048Z

Period
93.89 min
Inclination
53.1565°
Eccentricity
0.0004367
Mean motion
15.33632963 rev/d
Perigee alt
462.0 km
Apogee alt
468.0 km
Semi-major
6,843.1 km
B*
9.7191e-4
RAAN
133.6816°
Arg perigee
53.1323°
Mean anomaly
307.0079°
Rev number
34,168

§ Raw data

STARLINK-12631 45405U 20019AX  26145.11375257  .00031818  00000+0  97191-3 0  99992 45405  53.1565 133.6816 0004367  53.1323 307.0079 15.33632963341689

JSON: /api/v1/satellites/45405 · /tle

For live sub-satellite position, see the globe view (requires WebGL).

§ Visibility from observer

Set your observer location to see the next 7 days of passes ≥ 10°. The values pass through the URL so the page stays shareable.

No JS? Fill the form by hand. The geolocation button needs JavaScript.